Current weather by "City, St" or "zip code"  
 

Current Conditions: Cleveland Hopkins International Airport, OH

Mostly Cloudy


64.0 F

Last Updated on Aug 9 2022, 11:51 pm EDT
Humidity: 90%
Wind Speed: N 0.0 mph
Barometer 30.10 in
Dewpoint: 61.0 F
Visibility: 10.00 mi
Precip: --
Heat Index: NA
Wind Chill: NA
Current conditions at:

Cleveland Hopkins International Airport, OH (KCLE)

Lat: 41.40569 Lon: 81.85193

Local Radar Image active severe weather and emergency alerts image image weather storm and storm spotter reports image weather observation monitoring service image
Local
Radar
Active
Alerts
Storm Reports Obs
Monitoring

Sign-up For Email & Text Message Weather Alert Notification Services



Advertise Here

Observation History for Cleveland Hopkins International Airport, OH


Time Wind
(mph)
Vis
(mi)
Weather Precip (in) Temperature (F) Relative
Humidity
Wind
Chill
(F)
Heat
Index
(F)
Pressure
Air Dwpt altimeter
(in)
sea level
(mb)
Rmks
11:51 pm EDT N 0.0 10.00 Mostly Cloudy -- 64.0 61.0 90% NA NA 30.10 1020.4
9:51 pm EDT N 5.8 10.00 Partly Cloudy -- 69.0 61.0 76% NA NA 30.08 1019.8
8:51 pm EDT N 5.8 10.00 Mostly Cloudy -- 70.0 61.0 73% NA NA 30.07 1019.4
7:51 pm EDT N 4.6 10.00 Mostly Cloudy -- 72.0 60.1 66% NA NA 30.07 1019.4
6:51 pm EDT N 5.8 10.00 Mostly Cloudy -- 73.0 59.0 62% NA NA 30.04 1018.5
5:51 pm EDT NE 6.9 10.00 Overcast -- 74.0 60.1 62% NA NA 30.05 1018.5
4:51 pm EDT N 6.9 10.00 Overcast -- 74.0 60.1 62% NA NA 30.05 1018.8
3:51 pm EDT N 9.2 10.00 Mostly Cloudy -- 73.0 60.1 64% NA NA 30.06 1018.9
2:51 pm EDT N 4.6 10.00 Overcast -- 73.0 59.0 62% NA NA 30.07 1019.2
1:51 pm EDT N 4.6 10.00 Overcast -- 73.0 60.1 64% NA NA 30.08 1019.6
12:51 pm EDT N 5.8 10.00 Overcast -- 72.0 62.1 71% NA NA 30.08 1019.6
11:51 am EDT N 9.2 10.00 Overcast -- 71.0 63.0 76% NA NA 30.08 1019.6
10:51 am EDT N 10.4 10.00 Overcast -- 72.0 64.0 76% NA NA 30.07 1019.1
9:51 am EDT N 6.9 10.00 Overcast -- 70.0 64.0 82% NA NA 30.06 1018.8
8:51 am EDT N 9.2 10.00 Overcast 00.01 69.0 64.9 87% NA NA 30.05 1018.6
7:51 am EDT NE 8.1 2.00 Light Rain Fog/Mist 00.01 68.0 66.0 93% NA NA 30.03 1018.0
6:51 am EDT N 8.1 10.00 Light Drizzle Trace 68.0 66.0 93% NA NA 30.01 1017.1
5:51 am EDT N 8.1 5.00 Light Drizzle Fog/Mist Trace 68.0 66.0 93% NA NA 29.99 1016.4
4:51 am EDT N 8.1 5.00 Light Drizzle Fog/Mist Trace 68.0 66.0 93% NA NA 29.98 1016.1
3:51 am EDT N 10.4 10.00 Overcast -- 69.0 66.9 93% NA NA 29.97 1015.6
2:51 am EDT N 11.5 3.00 Rain Fog/Mist 00.21 70.0 68.0 93% NA NA 29.95 1015.1
1:51 am EDT SW 6.9 7.00 Light Rain 00.11 74.0 72.0 94% NA NA 29.94 1014.6
12:51 am EDT SW 6.9 6.00 Thunderstorm Light Rain Fog/Mist 00.08 75.0 72.0 90% NA NA 29.93 1014.4

Regional Weather Observation


Cleveland Hopkins International Airport, OH (KCLE)

Mostly Cloudy
64.0 F

Cleveland, Burke Lakefront Airport, OH (KBKL)

Fair
70.0 F

Cleveland / Cuyahoga, OH (KCGF)

Fair
61.0 F

Willoughby, OH (KLNN)

Mostly Cloudy
62.0 F

Port Clinton Carl R Keller Field Airport, OH (KPCW)

Mostly Cloudy
64.0 F

Akron, Akron Fulton International Airport, OH (KAKR)

Overcast
72.0 F

Advertise Here


Advertise Here